Waarnemingen

Advertentie
Mijn weer
Tarbes/Ossun, Frankrijk (7621): temperatuur & dauwpunt: 16.11.2017 08:00:00 - 22.11.2017 08:00:00 (CET)Tarbes/Ossun, Frankrijk (7621): temperatuur 5cm: 16.11.2017 08:00:00 - 22.11.2017 08:00:00 (CET)Tarbes/Ossun, Frankrijk (7621): temperatuur -20cm & temperatuur -100cm: 16.11.2017 08:00:00 - 22.11.2017 08:00:00 (CET)Tarbes/Ossun, Frankrijk (7621): windsnelheid & windstoten: 16.11.2017 08:00:00 - 22.11.2017 08:00:00 (CET)Tarbes/Ossun, Frankrijk (7621): windrichting: 16.11.2017 08:00:00 - 22.11.2017 08:00:00 (CET)Tarbes/Ossun, Frankrijk (7621): luchtdruk: 16.11.2017 08:00:00 - 22.11.2017 08:00:00 (CET)Tarbes/Ossun, Frankrijk (7621): zicht: 16.11.2017 08:00:00 - 22.11.2017 08:00:00 (CET)Tarbes/Ossun, Frankrijk (7621): Zonneschijnduur: 16.11.2017 08:00:00 - 22.11.2017 08:00:00 (CET)Tarbes/Ossun, Frankrijk (7621): neerslag: 16.11.2017 08:00:00 - 22.11.2017 08:00:00 (CET)
Datum & Tijd tt [°C] td [°C] tt 5cm [°C] tt -20cm [°C] tt -100cm [°C] ff [km/u] ff [kn] fx [km/u] fx [kn] dd ppp [hPa] vv [km] sd [min] rr [mm]
22.11.2017 08:00:00 6,5 -2,2 1,6 8,5 12,0 16 9 24 13 Z 1014,4 10 0 0,0
22.11.2017 07:00:00 6,4 -2,0 -1,7 8,6 12,0 18 10 23 12 ZZO 1014,9 60 0 0,0
22.11.2017 06:00:00 2,2 -1,4 -2,2 8,6 12,0 11 6 16 8 Z 1016,1 10 0 0,0
22.11.2017 05:00:00 2,0 -2,0 -1,8 8,7 12,0 8 4 16 9 Z 1016,3 60 0 0,0
22.11.2017 04:00:00 3,1 -0,9 -1,3 8,8 12,0 11 6 14 8 Z 1016,7 10 0 0,0
22.11.2017 03:00:00 3,0 0,1 -1,0 8,9 12,0 9 5 14 8 ZZO 1017,3 10 0 0,0
22.11.2017 02:00:00 2,9 0,6 -0,8 8,9 12,1 9 5 12 7 Z 1017,8 60 0 0,0
22.11.2017 01:00:00 4,8 0,6 0,3 9,0 12,1 11 6 19 10 Z 1018,1 10 0 0,0
22.11.2017 00:00:00 5,7 1,2 -0,2 9,1 12,1 13 7 18 10 ZZO 1018,3 58 0 0,0
21.11.2017 23:00:00 4,6 1,6 -0,4 9,1 12,1 9 5 17 9 Z 1018,9 10 0 0,0
21.11.2017 22:00:00 3,7 0,9 -0,5 9,1 12,1 8 4 14 8 ZZO 1019,1 10 0 0,0
21.11.2017 21:00:00 3,9 1,3 -0,6 9,1 12,1 4 2 11 6 Z 1019,3 10 0 0,0
21.11.2017 20:00:00 5,2 2,0 1,0 9,0 12,1 8 4 13 7 ZZO 1019,5 55 0 0,0
21.11.2017 19:00:00 6,2 1,9 1,9 8,9 12,1 8 4 13 7 ZZO 1019,8 10 0 0,0
21.11.2017 18:00:00 8,3 3,7 4,0 8,7 12,1 9 5 11 6 ZW 1019,4 10 6 0,0
21.11.2017 17:00:00 17,8 1,3 - - - 5 3 8 4 ONO 1018,1 10 - 0,0
21.11.2017 16:00:00 18,6 2,0 20,6 8,4 12,1 8 4 18 10 NNO 1018,4 10 60 0,0
21.11.2017 15:00:00 19,5 2,8 26,3 8,2 12,1 5 3 11 6 - 1018,6 10 60 0,0
21.11.2017 14:00:00 19,8 2,6 28,9 8,1 12,2 5 3 12 6 - 1018,9 10 60 0,0
21.11.2017 13:00:00 19,6 1,1 26,8 8,1 12,2 2 1 8 4 - 1019,6 10 60 0,0
21.11.2017 12:00:00 18,8 3,8 21,3 8,0 12,2 4 2 9 5 - 1020,6 10 60 0,0
21.11.2017 11:00:00 15,9 4,3 10,6 8,1 12,2 5 3 13 7 ZO 1021,5 10 60 0,0
21.11.2017 10:00:00 11,6 4,1 3,1 8,1 12,2 9 5 14 7 Z 1021,9 49 60 0,0
21.11.2017 09:00:00 5,3 1,8 0,0 8,2 12,2 11 6 14 7 ZZO 1022,7 10 28 0,0
21.11.2017 08:00:00 4,4 0,4 -0,2 8,2 12,2 11 6 18 10 Z 1022,4 10 0 0,0
21.11.2017 07:00:00 4,7 0,6 0,1 8,3 12,2 11 6 17 9 Z 1022,2 60 0 0,0
21.11.2017 06:00:00 4,8 1,1 -0,1 8,4 12,2 13 7 16 9 ZZO 1022,4 10 0 0,0
21.11.2017 05:00:00 5,8 0,7 0,7 8,4 12,2 9 5 20 11 ZZO 1022,1 10 0 0,0
21.11.2017 04:00:00 6,3 1,4 -0,7 8,5 12,2 15 8 19 11 ZZO 1022,3 10 0 0,0
21.11.2017 03:00:00 3,8 0,7 -0,3 8,5 12,2 9 5 18 10 Z 1023,0 10 0 0,0
21.11.2017 02:00:00 6,2 1,3 -0,1 8,6 12,2 11 6 22 12 ZZO 1022,4 10 0 0,0
21.11.2017 01:00:00 4,1 1,0 -0,2 8,6 12,2 11 6 18 10 ZZO 1022,9 10 0 0,0
21.11.2017 00:00:00 2,6 1,0 -1,2 8,7 12,2 13 7 18 10 Z 1023,3 49 0 0,0
20.11.2017 23:00:00 2,9 2,0 -1,1 8,7 12,2 5 3 12 7 ZZO 1023,2 10 0 0,0
20.11.2017 22:00:00 3,9 3,2 -0,7 8,7 12,3 8 4 10 6 ZZO 1023,3 10 0 0,0
20.11.2017 21:00:00 4,2 3,5 -0,4 8,7 12,3 5 3 9 5 ZZO 1023,3 10 0 0,0
20.11.2017 20:00:00 3,2 1,9 0,4 8,6 12,3 7 4 10 5 Z 1023,7 16 0 0,0
20.11.2017 19:00:00 5,6 4,7 1,4 8,5 12,3 6 3 9 5 Z 1023,1 51 0 0,0
20.11.2017 18:00:00 9,4 5,2 2,3 8,4 12,2 2 1 9 5 NNO 1022,5 10 7 0,0
20.11.2017 17:00:00 12,8 5,9 10,1 8,2 12,3 5 3 17 9 NO 1021,9 10 60 0,0
20.11.2017 16:00:00 14,2 6,0 16,8 8,1 12,3 11 6 17 9 NNO 1021,8 10 60 0,0
20.11.2017 15:00:00 14,8 5,0 21,9 8,0 12,2 8 4 19 10 NNO 1022,0 10 60 0,0
20.11.2017 14:00:00 14,0 4,8 20,2 8,0 12,3 11 6 18 10 NNO 1022,6 10 60 0,0
20.11.2017 13:00:00 12,1 4,8 19,1 7,9 12,3 9 5 16 9 N 1023,4 10 60 0,0
20.11.2017 12:00:00 10,4 3,7 13,9 8,0 12,3 4 2 10 5 - 1024,1 10 60 0,0
20.11.2017 11:00:00 7,6 3,4 4,9 8,1 12,3 2 1 6 3 - 1025,0 10 60 0,0
20.11.2017 10:00:00 3,9 2,7 -1,2 8,1 12,3 0 0 8 4 N 1025,7 10 60 0,0
20.11.2017 09:00:00 0,0 -0,6 -4,6 8,3 12,3 5 3 7 4 ZZO 1026,3 10 37 0,0
20.11.2017 08:00:00 -1,2 -2,0 -4,6 8,4 12,3 4 2 9 5 - 1026,6 10 0 0,0
20.11.2017 07:00:00 -1,9 -2,9 -4,7 8,4 12,3 5 3 6 4 Z 1026,3 57 0 0,0
20.11.2017 06:00:00 -0,4 -1,1 -4,6 8,5 12,3 5 3 10 5 Z 1025,7 10 0 0,0
20.11.2017 05:00:00 -0,8 -1,9 -4,3 8,6 12,3 2 1 11 6 - 1025,7 10 0 0,0
20.11.2017 04:00:00 0,4 -0,3 -4,1 8,7 12,3 8 4 10 5 Z 1025,8 10 0 0,0
20.11.2017 03:00:00 0,8 0,5 -4,2 8,8 12,4 5 3 9 5 ZZO 1026,6 10 0 0,0
20.11.2017 02:00:00 -0,8 -1,6 -3,6 8,9 12,4 4 2 8 5 Z 1027,2 10 0 0,0
20.11.2017 01:00:00 0,1 -0,8 -3,6 9,0 12,4 2 1 8 5 ZZO 1027,6 10 0 0,0
20.11.2017 00:00:00 1,2 0,6 -3,1 9,0 12,4 2 1 10 5 ZZO 1027,6 9 0 0,0
19.11.2017 23:00:00 0,8 -0,2 -2,7 9,1 12,4 5 3 8 4 ZZW 1027,5 10 0 0,0
19.11.2017 22:00:00 1,3 0,3 -2,2 9,1 12,4 5 3 10 5 Z 1027,4 10 0 0,0
19.11.2017 21:00:00 1,9 0,1 -1,7 9,1 12,4 5 3 8 4 Z 1027,2 10 0 0,0
19.11.2017 20:00:00 3,1 1,5 -0,9 9,1 12,4 5 3 8 4 ZZO 1027,2 10 0 0,0
19.11.2017 19:00:00 4,0 2,3 0,2 9,0 12,4 4 2 7 4 Z 1026,6 22 0 0,0
19.11.2017 18:00:00 6,4 1,5 0,7 8,9 12,4 0 0 10 6 N 1025,9 10 0 0,0
19.11.2017 17:00:00 10,2 4,3 7,5 8,8 12,4 9 5 15 8 N 1024,7 10 60 0,0
19.11.2017 16:00:00 12,1 3,6 15,4 8,7 12,4 9 5 18 10 NNO 1024,2 10 60 0,0
19.11.2017 15:00:00 12,4 3,9 19,3 8,6 12,4 11 6 17 9 N 1024,5 60 60 0,0
19.11.2017 14:00:00 12,0 2,4 21,5 8,5 12,4 5 3 15 8 - 1025,1 10 60 0,0
19.11.2017 13:00:00 11,3 4,0 18,5 8,5 12,4 2 1 14 7 - 1025,3 10 60 0,0
19.11.2017 12:00:00 10,0 4,4 15,0 8,6 12,4 8 4 16 8 NNO 1025,9 10 60 0,0
19.11.2017 11:00:00 9,6 4,6 6,9 8,7 12,4 5 3 10 6 NNO 1025,9 50 60 0,0
19.11.2017 10:00:00 6,4 3,2 0,1 8,7 12,4 5 3 13 7 - 1026,3 10 55 0,0
19.11.2017 09:00:00 1,8 1,1 -3,6 8,8 12,5 8 4 13 7 ZZO 1026,9 10 38 0,0
19.11.2017 08:00:00 0,3 -0,6 -3,4 8,9 12,5 9 5 12 6 Z 1026,7 10 0 0,0
19.11.2017 07:00:00 0,7 0,1 -2,8 9,0 12,4 8 4 14 8 ZZO 1026,3 10 0 0,0
19.11.2017 06:00:00 1,1 0,1 -2,0 9,1 12,5 8 4 15 8 Z 1026,1 10 0 0,0
19.11.2017 05:00:00 2,0 0,7 -2,0 9,1 12,5 13 7 16 9 Z 1025,9 10 0 0,0
19.11.2017 04:00:00 2,6 1,3 -2,0 9,2 12,5 9 5 13 7 Z 1025,8 10 0 0,0
19.11.2017 03:00:00 1,9 1,0 - - - 9 5 13 7 Z 1025,7 10 - 0,0
19.11.2017 02:00:00 2,6 1,6 -1,2 9,2 12,5 5 3 12 7 Z 1025,4 10 0 0,0
19.11.2017 01:00:00 4,5 3,6 0,8 9,2 12,5 9 5 10 6 Z 1025,4 6 0 0,0
19.11.2017 00:00:00 6,1 5,2 4,5 9,2 12,5 4 2 6 3 NNO 1025,7 6 0 0,0
18.11.2017 23:00:00 6,8 5,7 6,2 9,2 12,5 4 2 7 4 NNW 1025,5 9 0 0,0
18.11.2017 22:00:00 6,6 5,9 - - - 0 0 4 2 N 1025,8 8 - -
18.11.2017 21:00:00 5,8 5,2 2,0 9,3 12,5 3 2 9 5 ZZW 1025,7 14 0 0,0
18.11.2017 20:00:00 3,7 2,8 1,5 9,2 12,5 5 3 8 4 ZZW 1025,9 8 0 0,0
18.11.2017 19:00:00 6,6 5,1 0,0 9,1 12,5 2 1 11 6 N 1025,3 9 0 0,0
18.11.2017 18:00:00 8,1 5,2 4,2 9,0 12,5 9 5 13 7 NO 1024,9 18 0 0,0
18.11.2017 17:00:00 10,7 7,0 9,7 8,9 12,5 10 5 15 8 NNO 1024,0 35 35 0,0
18.11.2017 16:00:00 12,9 6,7 13,7 8,8 12,5 11 6 16 9 NW 1023,5 10 57 0,0
18.11.2017 15:00:00 11,8 6,5 12,2 8,7 12,6 5 3 11 6 W 1023,5 10 4 0,0
18.11.2017 14:00:00 11,3 6,4 12,2 8,6 12,5 8 4 21 11 W 1023,9 10 7 0,0
18.11.2017 13:00:00 11,3 6,6 13,5 8,6 12,6 9 5 16 9 NW 1024,1 10 27 0,0
18.11.2017 12:00:00 12,1 7,4 13,9 8,6 12,5 5 3 18 10 WZW 1024,4 10 48 0,0
18.11.2017 11:00:00 11,3 6,8 8,0 8,6 12,6 9 5 16 9 W 1024,8 10 58 0,0
18.11.2017 10:00:00 8,3 4,5 3,8 8,7 12,6 9 5 16 8 ZZO 1024,9 10 60 0,0
18.11.2017 09:00:00 5,2 2,5 1,3 8,7 12,6 12 6 16 9 ZZO 1025,0 44 40 0,0
18.11.2017 08:00:00 3,1 1,6 0,8 8,8 12,6 13 7 16 9 ZZO 1025,1 10 0 0,0
18.11.2017 07:00:00 4,0 2,0 1,9 8,9 12,6 13 7 18 10 Z 1024,7 10 0 0,0
18.11.2017 06:00:00 3,7 2,2 1,4 8,9 12,6 16 8 18 10 Z 1024,8 34 0 0,0
18.11.2017 05:00:00 3,5 2,3 -0,6 8,9 12,6 13 7 16 9 ZZO 1024,9 10 0 0,0
18.11.2017 04:00:00 4,4 2,7 1,8 9,0 12,6 9 5 18 10 Z 1024,8 10 0 0,0
18.11.2017 03:00:00 4,7 3,2 0,7 9,0 12,6 9 5 13 7 ZZO 1024,7 15 0 0,0
18.11.2017 02:00:00 4,9 3,6 2,5 9,1 12,7 8 4 13 7 ZZO 1024,7 10 0 0,0
18.11.2017 01:00:00 4,8 3,8 -0,9 9,1 12,7 10 6 14 8 ZZO 1024,8 16 0 0,0
18.11.2017 00:00:00 4,3 3,0 -0,6 9,2 12,7 9 5 15 8 ZZO 1024,7 10 0 0,0
17.11.2017 23:00:00 3,3 1,8 -0,9 9,2 12,7 8 4 15 8 Z 1025,1 10 0 0,0
17.11.2017 22:00:00 5,1 3,8 -0,8 9,3 12,7 11 6 16 8 ZZO 1024,7 10 0 0,0
17.11.2017 21:00:00 4,2 3,6 -0,4 9,3 12,7 8 4 12 6 Z 1024,9 10 0 0,0
17.11.2017 20:00:00 4,5 3,0 0,3 9,2 12,7 8 4 11 6 Z 1025,1 10 0 0,0
17.11.2017 19:00:00 4,9 2,8 1,2 9,1 12,7 5 3 11 6 ZZO 1024,8 10 0 0,0
17.11.2017 18:00:00 7,6 4,0 2,3 9,0 12,7 5 3 13 7 ZW 1023,7 10 2 0,0
17.11.2017 17:00:00 11,3 5,4 8,3 8,8 12,7 9 5 14 7 NW 1022,7 10 30 0,0
17.11.2017 16:00:00 13,7 5,1 15,4 8,7 12,7 9 5 16 9 WNW 1022,1 10 60 0,0
17.11.2017 15:00:00 14,9 4,6 22,3 8,6 12,7 11 6 18 10 W 1021,9 10 60 0,0
17.11.2017 14:00:00 14,6 5,9 22,6 8,4 12,7 11 6 22 12 W 1022,3 10 60 0,0
17.11.2017 13:00:00 14,5 5,3 21,8 8,4 12,7 8 4 16 8 WNW 1022,5 38 60 0,0
17.11.2017 12:00:00 14,8 5,8 18,2 8,4 12,8 2 1 8 5 - 1022,9 10 60 0,0
17.11.2017 11:00:00 12,4 5,1 10,0 8,4 12,8 2 1 8 5 - 1023,7 10 35 0,0
17.11.2017 10:00:00 7,9 3,7 5,2 8,5 12,8 5 3 14 8 ZZO 1024,4 10 36 0,0
17.11.2017 09:00:00 5,1 2,6 -0,4 8,6 12,8 9 5 14 8 ZO 1025,0 10 41 0,0
17.11.2017 08:00:00 2,0 -0,3 - - - 9 5 16 9 Z 1025,1 10 - 0,0
17.11.2017 07:00:00 2,0 0,7 -1,6 8,7 12,8 9 5 13 7 ZZO 1025,0 10 0 0,0
17.11.2017 06:00:00 2,2 0,6 -0,8 8,8 12,8 9 5 12 7 ZZO 1024,7 10 0 0,0
17.11.2017 05:00:00 3,1 0,8 -1,4 8,9 12,8 7 4 20 11 ZZO 1024,7 60 0 0,0
17.11.2017 04:00:00 2,9 0,8 -0,8 8,9 12,8 8 4 14 8 ZZO 1024,6 10 0 0,0
17.11.2017 03:00:00 2,6 1,6 -1,6 9,0 12,8 11 6 14 7 ZZO 1024,4 10 0 0,0
17.11.2017 02:00:00 2,6 0,8 -1,0 9,0 12,8 5 3 13 7 Z 1024,5 31 0 0,0
17.11.2017 01:00:00 2,4 1,2 -0,8 9,1 12,9 5 3 13 7 Z 1024,7 10 0 0,0
17.11.2017 00:00:00 3,1 2,4 -0,5 9,1 12,9 8 4 10 6 Z 1024,6 10 0 0,0
16.11.2017 23:00:00 3,5 2,5 0,3 9,1 12,9 8 4 11 6 ZZO 1024,6 10 0 0,0
16.11.2017 22:00:00 3,1 2,2 0,2 9,1 12,9 5 3 12 6 Z 1025,0 6 0 0,0
16.11.2017 21:00:00 3,6 2,0 -0,8 9,1 12,9 11 6 12 7 Z 1024,9 10 0 0,0
16.11.2017 20:00:00 4,4 2,4 0,7 9,0 12,9 5 3 12 7 Z 1024,6 10 0 0,0
16.11.2017 19:00:00 5,3 3,1 1,4 8,9 12,9 9 5 11 6 ZZW 1024,2 42 0 0,0
16.11.2017 18:00:00 9,9 4,3 4,2 8,7 12,9 8 4 11 6 NNW 1022,9 10 11 0,0
16.11.2017 17:00:00 13,3 5,7 10,4 8,6 13,0 5 3 9 5 NNO 1022,0 50 57 0,0
16.11.2017 16:00:00 15,4 5,0 18,9 8,4 12,9 5 3 13 7 N 1020,9 10 60 0,0
16.11.2017 15:00:00 15,8 5,1 24,1 8,3 12,9 5 3 13 7 NNW 1020,5 50 60 0,0
16.11.2017 14:00:00 14,6 3,7 23,1 8,2 12,9 8 5 17 9 NNO 1021,0 41 60 0,0
16.11.2017 13:00:00 14,3 3,7 21,9 8,1 12,9 8 4 20 11 NNO 1021,1 10 60 0,0
16.11.2017 12:00:00 14,2 4,5 18,8 8,2 13,0 9 5 16 8 NO 1021,4 10 60 0,0
16.11.2017 11:00:00 12,4 4,8 8,6 8,2 13,0 5 3 14 7 - 1021,7 10 60 0,0
16.11.2017 10:00:00 7,6 3,6 0,1 8,3 13,0 11 6 13 7 ZZO 1022,4 10 57 0,0
16.11.2017 09:00:00 2,8 0,7 -2,0 8,4 13,0 9 5 14 7 ZZO 1023,1 10 43 0,0
16.11.2017 08:00:00 0,7 0,3 -3,6 8,4 13,0 11 6 14 8 ZZO 1022,8 10 0 0,0

tt = temperatuur
td = dauwpunt
tt 5cm = temperatuur 5cm
tt -20cm = temperatuur -20cm
tt -100cm = temperatuur -100cm
ff = windsnelheid
fx = windstoten
dd = windrichting
ppp = luchtdruk
vv = zicht
sd = Zonneschijnduur
rr = neerslag

Weerstations in de omgeving